Voltar ao catálogo

STARLINK-35425

AtivoComunicaçõesVLEO
NORAD 65874·PAYLOAD·🇺🇸 United States

Lançado Oct 3, 2025 de Vandenberg Space Force Base

Loading…

Próximas Passagens (próximas 24 horas)

TLE

AtualizadoSource: CelesTrak SupGP

Época: Sep 14, 2026, 22:51 UTC

1 65874C 25223W   26257.95256944 -.00054962  00000+0 -16239-2 0  2577
2 65874  53.1576 131.7559 0001360  83.5897 123.0269 15.34417610    16

Acompanhe STARLINK-35425 em tempo real com AllMySat

Download on the App Store